| time (UTC) | temp F | wind direction | speed MPH | gust MPH | rain 1hr in | rain 24hr in | rain mn in | humidity % | barometer mb |
| 20260902184911 | 67 | 195 | 1.0 | 3.0 | 0.00 | 0.00 | 0.00 | 74 | 1018.9 |
| 20260902184402 | 67 | 222 | 1.0 | 5.0 | 0.00 | 0.00 | 0.00 | 73 | 1018.9 |
| 20260902183858 | 67 | 196 | 2.0 | 5.0 | 0.00 | 0.00 | 0.00 | 73 | 1018.9 |
| 20260902183348 | 67 | 211 | 1.0 | 4.0 | 0.00 | 0.00 | 0.00 | 73 | 1018.9 |
| 20260902182840 | 67 | 190 | 1.0 | 5.0 | 0.00 | 0.00 | 0.00 | 73 | 1018.9 |
| 20260902182331 | 67 | 195 | 0.0 | 5.0 | 0.00 | 0.00 | 0.00 | 73 | 1018.9 |
| 20260902181826 | 67 | 187 | 1.0 | 5.0 | 0.00 | 0.00 | 0.00 | 73 | 1018.9 |
| 20260902181315 | 67 | 201 | 2.0 | 5.0 | 0.00 | 0.00 | 0.00 | 73 | 1018.9 |
| 20260902180913 | 68 | 183 | 2.0 | 7.0 | 0.00 | 0.00 | 0.00 | 72 | 1018.8 |
| 20260902180909 | 67 | 194 | 2.0 | 5.0 | 0.00 | 0.00 | 0.00 | 73 | 1018.7 |
| 20260902180904 | 67 | 191 | 2.0 | 5.0 | 0.00 | 0.00 | 0.00 | 73 | 1018.8 |
| 20260902175344 | 68 | 199 | 1.0 | 7.0 | 0.00 | 0.00 | 0.00 | 72 | 1018.8 |
| 20260902174837 | 68 | 193 | 0.0 | 1.0 | 0.00 | 0.00 | 0.00 | 72 | 1018.8 |
| 20260902174329 | 68 | 205 | 1.0 | 5.0 | 0.00 | 0.00 | 0.00 | 72 | 1018.7 |
| 20260902173820 | 68 | 193 | 2.0 | 7.0 | 0.00 | 0.00 | 0.00 | 72 | 1018.7 |
| 20260902173317 | 68 | 201 | 2.0 | 6.0 | 0.00 | 0.00 | 0.00 | 71 | 1018.8 |
| 20260902173313 | 68 | 176 | 2.0 | 7.0 | 0.00 | 0.00 | 0.00 | 71 | 1018.7 |
| 20260902172308 | 68 | 196 | 1.0 | 7.0 | 0.00 | 0.00 | 0.00 | 70 | 1018.8 |
| 20260902171848 | 68 | 242 | 2.0 | 7.0 | 0.00 | 0.00 | 0.00 | 70 | 1018.8 |
| 20260902171341 | 68 | 218 | 3.0 | 7.0 | 0.00 | 0.00 | 0.00 | 70 | 1018.8 |
| 20260902170843 | 68 | 183 | 4.0 | 7.0 | 0.00 | 0.00 | 0.00 | 70 | 1018.7 |
| 20260902170320 | 68 | 222 | 4.0 | 7.0 | 0.00 | 0.00 | 0.00 | 70 | 1018.8 |
| 20260902165816 | 68 | 201 | 4.0 | 8.0 | 0.00 | 0.00 | 0.00 | 69 | 1018.8 |
| 20260902165309 | 68 | 241 | 4.0 | 10.0 | 0.00 | 0.00 | 0.00 | 69 | 1018.8 |
| 20260902164804 | 69 | 201 | 2.0 | 10.0 | 0.00 | 0.00 | 0.00 | 69 | 1018.8 |
| 20260902164800 | 69 | 235 | 2.0 | 6.0 | 0.00 | 0.00 | 0.00 | 72 | 1018.9 |
| 20260902163852 | 69 | 203 | 1.0 | 5.0 | 0.00 | 0.00 | 0.00 | 73 | 1018.9 |
| 20260902163338 | 69 | 249 | 1.0 | 4.0 | 0.00 | 0.00 | 0.00 | 73 | 1018.9 |
| 20260902162828 | 69 | 185 | 1.0 | 4.0 | 0.00 | 0.00 | 0.00 | 73 | 1019.0 |
| 20260902162323 | 69 | 233 | 1.0 | 4.0 | 0.00 | 0.00 | 0.00 | 73 | 1019.0 |
| 20260902161814 | 69 | 210 | 1.0 | 5.0 | 0.00 | 0.00 | 0.00 | 72 | 1019.0 |
| 20260902161305 | 69 | 226 | 1.0 | 5.0 | 0.00 | 0.00 | 0.00 | 72 | 1019.0 |
| 20260902160803 | 69 | 272 | 2.0 | 7.0 | 0.00 | 0.00 | 0.00 | 72 | 1019.0 |
| 20260902160359 | 69 | 224 | 3.0 | 7.0 | 0.00 | 0.00 | 0.00 | 70 | 1019.0 |
| 20260902155854 | 70 | 260 | 3.0 | 8.0 | 0.00 | 0.00 | 0.00 | 69 | 1019.0 |
| 20260902155748 | 70 | 186 | 2.0 | 9.0 | 0.00 | 0.00 | 0.00 | 70 | 1019.0 |
| 20260902154842 | 70 | 179 | 2.0 | 9.0 | 0.00 | 0.00 | 0.00 | 68 | 1019.0 |
| 20260902154731 | 70 | 168 | 3.0 | 8.0 | 0.00 | 0.00 | 0.00 | 69 | 1019.0 |
| 20260902153817 | 70 | 240 | 3.0 | 10.0 | 0.00 | 0.00 | 0.00 | 68 | 1018.9 |
| 20260902153310 | 70 | 239 | 4.0 | 10.0 | 0.00 | 0.00 | 0.00 | 67 | 1019.0 |
| 20260902152802 | 71 | 220 | 4.0 | 11.0 | 0.00 | 0.00 | 0.00 | 65 | 1018.9 |
| 20260902152300 | 71 | 159 | 4.0 | 11.0 | 0.00 | 0.00 | 0.00 | 65 | 1019.0 |
| 20260902151757 | 71 | 210 | 3.0 | 8.0 | 0.00 | 0.00 | 0.00 | 63 | 1018.9 |
| 20260902151345 | 71 | 219 | 3.0 | 10.0 | 0.00 | 0.00 | 0.00 | 64 | 1019.0 |
| 20260902150839 | 71 | 276 | 4.0 | 10.0 | 0.00 | 0.00 | 0.00 | 63 | 1019.0 |
| 20260902150331 | 71 | 249 | 4.0 | 10.0 | 0.00 | 0.00 | 0.00 | 63 | 1019.0 |
| 20260902145824 | 71 | 182 | 2.0 | 10.0 | 0.00 | 0.00 | 0.00 | 62 | 1019.0 |
| 20260902145715 | 72 | 219 | 2.0 | 9.0 | 0.00 | 0.00 | 0.00 | 63 | 1019.0 |
| 20260902144810 | 72 | 285 | 4.0 | 9.0 | 0.00 | 0.00 | 0.00 | 62 | 1019.0 |
| 20260902144253 | 72 | 208 | 4.0 | 10.0 | 0.00 | 0.00 | 0.00 | 61 | 1019.1 |
| 20260902143751 | 72 | 193 | 4.0 | 10.0 | 0.00 | 0.00 | 0.00 | 61 | 1019.0 |
| 20260902143251 | 72 | 216 | 3.0 | 10.0 | 0.00 | 0.00 | 0.00 | 61 | 1019.0 |
| 20260902142841 | 73 | 159 | 3.0 | 10.0 | 0.00 | 0.00 | 0.00 | 61 | 1019.0 |
| 20260902142334 | 73 | 259 | 3.0 | 8.0 | 0.00 | 0.00 | 0.00 | 62 | 1019.0 |
| 20260902141825 | 73 | 193 | 2.0 | 8.0 | 0.00 | 0.00 | 0.00 | 61 | 1019.1 |
| 20260902141319 | 73 | 252 | 3.0 | 9.0 | 0.00 | 0.00 | 0.00 | 61 | 1019.1 |
| 20260902140812 | 73 | 217 | 3.0 | 9.0 | 0.00 | 0.00 | 0.00 | 62 | 1019.1 |
| 20260902140304 | 72 | 201 | 3.0 | 9.0 | 0.00 | 0.00 | 0.00 | 63 | 1019.1 |
| 20260902135756 | 72 | 222 | 4.0 | 9.0 | 0.00 | 0.00 | 0.00 | 61 | 1019.2 |
| 20260902135251 | 72 | 262 | 2.0 | 7.0 | 0.00 | 0.00 | 0.00 | 63 | 1019.1 |
| 20260902134744 | 72 | 301 | 2.0 | 7.0 | 0.00 | 0.00 | 0.00 | 63 | 1019.0 |
| 20260902134334 | 72 | 244 | 4.0 | 9.0 | 0.00 | 0.00 | 0.00 | 61 | 1019.0 |
| 20260902133826 | 72 | 82 | 4.0 | 9.0 | 0.00 | 0.00 | 0.00 | 63 | 1019.0 |
| 20260902133316 | 72 | 241 | 4.0 | 9.0 | 0.00 | 0.00 | 0.00 | 63 | 1019.1 |
| 20260902132807 | 72 | 238 | 3.0 | 9.0 | 0.00 | 0.00 | 0.00 | 64 | 1019.1 |
| 20260902132656 | 72 | 189 | 2.0 | 9.0 | 0.00 | 0.00 | 0.00 | 66 | 1019.1 |
| 20260902131755 | 72 | 192 | 3.0 | 8.0 | 0.00 | 0.00 | 0.00 | 66 | 1019.1 |
| 20260902131244 | 72 | 203 | 3.0 | 7.0 | 0.00 | 0.00 | 0.00 | 67 | 1019.2 |
| 20260902130738 | 72 | 227 | 4.0 | 13.0 | 0.00 | 0.00 | 0.00 | 65 | 1019.1 |
| 20260902130631 | 72 | 202 | 4.0 | 13.0 | 0.00 | 0.00 | 0.00 | 65 | 1019.2 |
| 20260902125822 | 72 | 193 | 4.0 | 10.0 | 0.00 | 0.00 | 0.00 | 66 | 1019.0 |
| 20260902125312 | 72 | 195 | 5.0 | 10.0 | 0.00 | 0.00 | 0.00 | 64 | 1019.1 |
| 20260902124802 | 72 | 166 | 4.0 | 9.0 | 0.00 | 0.00 | 0.00 | 67 | 1019.0 |
| 20260902124253 | 71 | 139 | 4.0 | 8.0 | 0.00 | 0.00 | 0.00 | 65 | 1019.1 |
| 20260902124140 | 71 | 317 | 1.0 | 7.0 | 0.00 | 0.00 | 0.00 | 68 | 1019.1 |
| 20260902123839 | 71 | 218 | 2.0 | 7.0 | 0.00 | 0.00 | 0.00 | 65 | 1019.1 |
| 20260902122829 | 71 | 20 | 1.0 | 5.0 | 0.00 | 0.00 | 0.00 | 68 | 1019.1 |
| 20260902122323 | 71 | 220 | 1.0 | 5.0 | 0.00 | 0.00 | 0.00 | 67 | 1019.2 |
| 20260902121813 | 71 | 59 | 2.0 | 7.0 | 0.00 | 0.00 | 0.00 | 67 | 1019.2 |
| 20260902121305 | 71 | 253 | 3.0 | 10.0 | 0.00 | 0.00 | 0.00 | 68 | 1019.4 |
| 20260902120801 | 71 | 194 | 4.0 | 12.0 | 0.00 | 0.00 | 0.00 | 68 | 1019.4 |
| 20260902120252 | 71 | 197 | 5.0 | 12.0 | 0.00 | 0.00 | 0.00 | 69 | 1019.4 |
| 20260902115746 | 71 | 260 | 5.0 | 10.0 | 0.00 | 0.00 | 0.00 | 65 | 1019.5 |
| 20260902115237 | 71 | 235 | 5.0 | 10.0 | 0.00 | 0.00 | 0.00 | 68 | 1019.6 |
| 20260902114728 | 70 | 250 | 5.0 | 10.0 | 0.00 | 0.00 | 0.00 | 69 | 1019.7 |
| 20260902114320 | 70 | 212 | 5.0 | 10.0 | 0.00 | 0.00 | 0.00 | 69 | 1019.7 |
| 20260902113812 | 70 | 218 | 4.0 | 10.0 | 0.00 | 0.00 | 0.00 | 69 | 1019.7 |
| 20260902113659 | 70 | 189 | 4.0 | 10.0 | 0.00 | 0.00 | 0.00 | 68 | 1019.7 |
| 20260902112806 | 70 | 236 | 3.0 | 10.0 | 0.00 | 0.00 | 0.00 | 69 | 1019.6 |
| 20260902112247 | 70 | 324 | 3.0 | 12.0 | 0.00 | 0.00 | 0.00 | 70 | 1019.6 |
| 20260902112140 | 70 | 257 | 4.0 | 12.0 | 0.00 | 0.00 | 0.00 | 69 | 1019.5 |
| 20260902111232 | 70 | 201 | 3.0 | 10.0 | 0.00 | 0.00 | 0.00 | 70 | 1019.5 |
| 20260902110739 | 70 | 172 | 2.0 | 8.0 | 0.00 | 0.00 | 0.00 | 71 | 1019.6 |
| 20260902110319 | 70 | 200 | 2.0 | 8.0 | 0.00 | 0.00 | 0.00 | 69 | 1019.6 |
| 20260902105809 | 70 | 235 | 2.0 | 6.0 | 0.00 | 0.00 | 0.00 | 70 | 1019.6 |
| 20260902105300 | 70 | 279 | 2.0 | 8.0 | 0.00 | 0.00 | 0.00 | 71 | 1019.6 |
| 20260902104751 | 70 | 230 | 3.0 | 8.0 | 0.00 | 0.00 | 0.00 | 72 | 1019.6 |
| 20260902104246 | 70 | 222 | 2.0 | 7.0 | 0.00 | 0.00 | 0.00 | 70 | 1019.6 |
| 20260902103737 | 70 | 305 | 3.0 | 9.0 | 0.00 | 0.00 | 0.00 | 71 | 1019.6 |
| 20260902103226 | 70 | 215 | 5.0 | 12.0 | 0.00 | 0.00 | 0.00 | 72 | 1019.6 |
| 20260902102717 | 70 | 264 | 5.0 | 12.0 | 0.00 | 0.00 | 0.00 | 72 | 1019.6 |
| 20260902102308 | 70 | 190 | 5.0 | 12.0 | 0.00 | 0.00 | 0.00 | 72 | 1019.6 |
| 20260902101759 | 69 | 235 | 6.0 | 12.0 | 0.00 | 0.00 | 0.00 | 74 | 1019.6 |
| 20260902101249 | 69 | 170 | 5.0 | 12.0 | 0.00 | 0.00 | 0.00 | 75 | 1019.5 |
| 20260902100741 | 69 | 188 | 5.0 | 10.0 | 0.00 | 0.00 | 0.00 | 75 | 1019.7 |
| 20260902100232 | 68 | 174 | 5.0 | 9.0 | 0.00 | 0.00 | 0.00 | 74 | 1019.7 |
| 20260902100121 | 69 | 260 | 4.0 | 9.0 | 0.00 | 0.00 | 0.00 | 76 | 1019.7 |
| 20260902095213 | 68 | 224 | 4.0 | 8.0 | 0.00 | 0.00 | 0.00 | 77 | 1019.7 |
| 20260902094803 | 68 | 206 | 4.0 | 8.0 | 0.00 | 0.00 | 0.00 | 77 | 1019.7 |
| 20260902094258 | 67 | 185 | 4.0 | 8.0 | 0.00 | 0.00 | 0.00 | 78 | 1019.6 |
| 20260902093749 | 67 | 182 | 4.0 | 9.0 | 0.00 | 0.00 | 0.00 | 78 | 1019.7 |
| 20260902093243 | 67 | 192 | 5.0 | 9.0 | 0.00 | 0.00 | 0.00 | 78 | 1019.7 |
| 20260902092734 | 67 | 181 | 4.0 | 9.0 | 0.00 | 0.00 | 0.00 | 78 | 1019.7 |
| 20260902092238 | 66 | 235 | 4.0 | 9.0 | 0.00 | 0.00 | 0.00 | 80 | 1019.7 |
| 20260902091716 | 66 | 158 | 5.0 | 17.0 | 0.00 | 0.00 | 0.00 | 79 | 1019.7 |
| 20260902091209 | 66 | 256 | 5.0 | 17.0 | 0.00 | 0.00 | 0.00 | 79 | 1019.8 |
| 20260902091001 | 66 | 255 | 4.0 | 12.0 | 0.00 | 0.00 | 0.00 | 79 | 1019.8 |
| 20260902090249 | 66 | 238 | 5.0 | 11.0 | 0.00 | 0.00 | 0.00 | 80 | 1019.7 |
| 20260902085739 | 66 | 213 | 5.0 | 11.0 | 0.00 | 0.00 | 0.00 | 79 | 1019.6 |
| 20260902085230 | 66 | 220 | 4.0 | 10.0 | 0.00 | 0.00 | 0.00 | 80 | 1019.6 |
| 20260902084721 | 66 | 227 | 4.0 | 10.0 | 0.00 | 0.00 | 0.00 | 80 | 1019.7 |
| 20260902084213 | 66 | 202 | 4.0 | 10.0 | 0.00 | 0.00 | 0.00 | 80 | 1019.6 |
| 20260902084103 | 65 | 224 | 3.0 | 8.0 | 0.00 | 0.00 | 0.00 | 80 | 1019.6 |
| 20260902083157 | 65 | 189 | 3.0 | 8.0 | 0.00 | 0.02 | 0.00 | 81 | 1019.6 |
| 20260902082758 | 65 | 181 | 3.0 | 9.0 | 0.00 | 0.03 | 0.00 | 82 | 1019.6 |
| 20260902082238 | 65 | 270 | 3.0 | 9.0 | 0.00 | 0.03 | 0.00 | 82 | 1019.5 |
| 20260902081743 | 64 | 162 | 3.0 | 7.0 | 0.00 | 0.03 | 0.00 | 82 | 1019.4 |
| 20260902081225 | 64 | 254 | 3.0 | 9.0 | 0.00 | 0.03 | 0.00 | 83 | 1019.4 |
| 20260902080716 | 64 | 185 | 4.0 | 9.0 | 0.00 | 0.03 | 0.00 | 83 | 1019.4 |
| 20260902080207 | 64 | 222 | 3.0 | 8.0 | 0.00 | 0.03 | 0.00 | 83 | 1019.4 |
| 20260902075701 | 63 | 284 | 2.0 | 6.0 | 0.00 | 0.03 | 0.00 | 83 | 1019.3 |
| 20260902075156 | 63 | 225 | 2.0 | 6.0 | 0.00 | 0.03 | 0.00 | 84 | 1019.3 |
| 20260902074746 | 63 | 210 | 2.0 | 6.0 | 0.00 | 0.03 | 0.00 | 84 | 1019.3 |
| 20260902074237 | 62 | 240 | 1.0 | 6.0 | 0.00 | 0.03 | 0.00 | 85 | 1019.2 |
| 20260902073732 | 62 | 188 | 0.0 | 5.0 | 0.00 | 0.03 | 0.00 | 86 | 1019.3 |
| 20260902073224 | 61 | 210 | 0.0 | 1.0 | 0.00 | 0.03 | 0.00 | 87 | 1019.2 |
| 20260902072717 | 61 | 210 | 0.0 | 1.0 | 0.00 | 0.03 | 0.00 | 87 | 1019.2 |
| 20260902072210 | 60 | 212 | 0.0 | 1.0 | 0.00 | 0.03 | 0.00 | 88 | 1019.1 |
| 20260902071704 | 60 | 179 | 0.0 | 1.0 | 0.00 | 0.03 | 0.00 | 89 | 1019.1 |
| 20260902071552 | 59 | 203 | 0.0 | 1.0 | 0.00 | 0.03 | 0.00 | 89 | 1019.1 |
| 20260902070651 | 59 | 285 | 0.0 | 1.0 | 0.00 | 0.03 | 0.00 | 90 | 1019.1 |
| 20260902070239 | 58 | 202 | 0.0 | 1.0 | 0.00 | 0.03 | 0.00 | 91 | 1019.1 |
| 20260902065731 | 58 | 166 | 0.0 | 1.0 | 0.00 | 0.03 | 0.00 | 91 | 1019.3 |
| 20260902065416 | 57 | 230 | 0.0 | 1.0 | 0.00 | 0.03 | 0.00 | 92 | 1019.2 |
| 20260902065217 | 57 | 191 | 0.0 | 1.0 | 0.00 | 0.03 | 0.00 | 91 | 1019.3 |
| 20260902065009 | 57 | 216 | 0.0 | 1.0 | 0.00 | 0.03 | 0.00 | 91 | 1019.2 |
| 20260902063658 | 57 | 190 | 0.0 | 1.0 | 0.00 | 0.03 | 0.00 | 92 | 1019.3 |
| 20260902063151 | 57 | 195 | 0.0 | 1.0 | 0.00 | 0.03 | 0.00 | 93 | 1019.3 |
| 20260902062739 | 56 | 199 | 0.0 | 0.0 | 0.00 | 0.03 | 0.00 | 93 | 1019.3 |
| 20260902061721 | 56 | 204 | 0.0 | 1.0 | 0.00 | 0.03 | 0.00 | 94 | 1019.3 |
| 20260902061512 | 56 | 183 | 0.0 | 0.0 | 0.00 | 0.03 | 0.00 | 94 | 1019.2 |
| 20260902060703 | 55 | 197 | 0.0 | 0.0 | 0.00 | 0.03 | 0.00 | 94 | 1019.1 |
| 20260902060155 | 55 | 206 | 0.0 | 0.0 | 0.00 | 0.03 | 0.00 | 94 | 1019.0 |
| 20260902055649 | 55 | 189 | 0.0 | 0.0 | 0.00 | 0.03 | 0.00 | 94 | 1019.0 |
| 20260902055144 | 55 | 188 | 0.0 | 0.0 | 0.00 | 0.03 | 0.00 | 94 | 1018.9 |
| 20260902054735 | 55 | 195 | 0.0 | 0.0 | 0.00 | 0.03 | 0.00 | 94 | 1018.9 |
| 20260902054225 | 55 | 192 | 0.0 | 0.0 | 0.00 | 0.03 | 0.00 | 93 | 1018.9 |
| 20260902053716 | 55 | 191 | 0.0 | 0.0 | 0.00 | 0.03 | 0.00 | 93 | 1019.0 |
| 20260902053210 | 55 | 199 | 0.0 | 0.0 | 0.00 | 0.03 | 0.00 | 93 | 1018.9 |
| 20260902053006 | 55 | 176 | 0.0 | 0.0 | 0.00 | 0.03 | 0.00 | 93 | 1018.9 |
| 20260902052456 | 55 | 177 | 0.0 | 0.0 | 0.00 | 0.03 | 0.00 | 93 | 1018.8 |
| 20260902051652 | 55 | 201 | 0.0 | 0.0 | 0.00 | 0.03 | 0.00 | 93 | 1018.8 |
| 20260902051147 | 55 | 201 | 0.0 | 0.0 | 0.00 | 0.03 | 0.00 | 93 | 1018.8 |
| 20260902050640 | 55 | 201 | 0.0 | 0.0 | 0.00 | 0.03 | 0.00 | 93 | 1018.8 |
| 20260902050134 | 55 | 201 | 0.0 | 0.0 | 0.00 | 0.03 | 0.00 | 93 | 1018.8 |
| 20260902045628 | 55 | 201 | 0.0 | 0.0 | 0.00 | 0.03 | 0.00 | 93 | 1018.8 |
| 20260902045221 | 55 | 201 | 0.0 | 0.0 | 0.00 | 0.03 | 0.00 | 93 | 1018.8 |
| 20260902044716 | 55 | 201 | 0.0 | 0.0 | 0.00 | 0.03 | 0.00 | 93 | 1018.8 |
| 20260902044212 | 55 | 201 | 0.0 | 0.0 | 0.00 | 0.03 | 0.00 | 93 | 1018.8 |
| 20260902043714 | 55 | 201 | 0.0 | 0.0 | 0.00 | 0.03 | 0.00 | 93 | 1018.8 |
| 20260902043456 | 55 | 201 | 0.0 | 0.0 | 0.00 | 0.03 | 0.00 | 93 | 1018.8 |
| 20260902042647 | 55 | 201 | 0.0 | 0.0 | 0.00 | 0.03 | 0.00 | 93 | 1018.8 |
| 20260902042142 | 55 | 201 | 0.0 | 0.0 | 0.00 | 0.03 | 0.00 | 93 | 1018.8 |
| 20260902041637 | 55 | 201 | 0.0 | 0.0 | 0.00 | 0.03 | 0.00 | 93 | 1018.8 |
| 20260902041131 | 55 | 201 | 0.0 | 0.0 | 0.00 | 0.03 | 0.00 | 92 | 1018.8 |
| 20260902040621 | 55 | 201 | 0.0 | 0.0 | 0.00 | 0.03 | 0.00 | 92 | 1018.8 |
| 20260902040214 | 56 | 201 | 0.0 | 0.0 | 0.00 | 0.03 | 0.00 | 92 | 1018.9 |
| 20260902040009 | 56 | 214 | 0.0 | 0.0 | 0.00 | 0.03 | 0.00 | 93 | 1018.8 |
| 20260902035159 | 56 | 210 | 0.0 | 0.0 | 0.00 | 0.03 | 0.00 | 93 | 1018.8 |
| 20260902034955 | 56 | 210 | 0.0 | 0.0 | 0.00 | 0.03 | 0.00 | 93 | 1018.9 |
| 20260902034149 | 56 | 206 | 0.0 | 0.0 | 0.00 | 0.03 | 0.00 | 93 | 1018.9 |
| 20260902033643 | 56 | 310 | 0.0 | 0.0 | 0.00 | 0.03 | 0.00 | 93 | 1018.9 |
| 20260902033135 | 56 | 310 | 0.0 | 0.0 | 0.00 | 0.03 | 0.00 | 93 | 1018.8 |
| 20260902032630 | 56 | 310 | 0.0 | 0.0 | 0.00 | 0.03 | 0.00 | 93 | 1018.9 |
| 20260902032425 | 56 | 310 | 0.0 | 0.0 | 0.00 | 0.03 | 0.00 | 93 | 1018.9 |
| 20260902031918 | 56 | 310 | 0.0 | 0.0 | 0.00 | 0.03 | 0.00 | 93 | 1018.9 |
| 20260902031111 | 56 | 310 | 0.0 | 0.0 | 0.00 | 0.03 | 0.00 | 93 | 1018.9 |
| 20260902030605 | 56 | 310 | 0.0 | 0.0 | 0.00 | 0.03 | 0.00 | 93 | 1019.0 |
| 20260902030113 | 56 | 310 | 0.0 | 0.0 | 0.00 | 0.03 | 0.00 | 93 | 1019.0 |
| 20260902025850 | 56 | 310 | 0.0 | 0.0 | 0.00 | 0.03 | 0.00 | 93 | 1019.0 |
| 20260902025650 | 56 | 310 | 0.0 | 0.0 | 0.00 | 0.03 | 0.00 | 93 | 1018.9 |
| 20260902024641 | 56 | 310 | 0.0 | 0.0 | 0.00 | 0.03 | 0.00 | 93 | 1018.9 |
| 20260902024135 | 56 | 310 | 0.0 | 0.0 | 0.00 | 0.03 | 0.00 | 92 | 1019.0 |
| 20260902023627 | 56 | 310 | 0.0 | 0.0 | 0.00 | 0.03 | 0.00 | 93 | 1019.0 |
| 20260902023119 | 56 | 310 | 0.0 | 0.0 | 0.00 | 0.03 | 0.00 | 93 | 1019.0 |
| 20260902022615 | 56 | 310 | 0.0 | 0.0 | 0.00 | 0.03 | 0.00 | 93 | 1019.1 |
| 20260902022107 | 56 | 310 | 0.0 | 0.0 | 0.00 | 0.03 | 0.00 | 93 | 1019.0 |
| 20260902021603 | 56 | 310 | 0.0 | 0.0 | 0.00 | 0.03 | 0.00 | 93 | 1019.0 |
| 20260902021055 | 56 | 310 | 0.0 | 0.0 | 0.00 | 0.03 | 0.00 | 93 | 1019.0 |
| 20260902020552 | 56 | 310 | 0.0 | 0.0 | 0.00 | 0.03 | 0.00 | 93 | 1019.1 |
| 20260902020449 | 56 | 310 | 0.0 | 0.0 | 0.00 | 0.03 | 0.00 | 92 | 1019.0 |
| 20260902015630 | 56 | 310 | 0.0 | 0.0 | 0.00 | 0.03 | 0.00 | 92 | 1019.0 |
| 20260902015123 | 56 | 310 | 0.0 | 0.0 | 0.00 | 0.03 | 0.00 | 92 | 1019.0 |
| 20260902014615 | 57 | 310 | 0.0 | 0.0 | 0.00 | 0.03 | 0.00 | 93 | 1019.1 |
| 20260902014108 | 57 | 310 | 0.0 | 0.0 | 0.00 | 0.03 | 0.00 | 92 | 1019.0 |
| 20260902013602 | 57 | 310 | 0.0 | 0.0 | 0.00 | 0.03 | 0.00 | 93 | 1019.0 |
| 20260902013054 | 57 | 310 | 0.0 | 0.0 | 0.00 | 0.03 | 0.00 | 92 | 1019.1 |
| 20260902012543 | 57 | 310 | 0.0 | 0.0 | 0.00 | 0.03 | 0.00 | 93 | 1019.0 |
| 20260902012035 | 57 | 310 | 0.0 | 0.0 | 0.00 | 0.03 | 0.00 | 92 | 1019.1 |
| 20260902011530 | 57 | 310 | 0.0 | 0.0 | 0.00 | 0.03 | 0.00 | 92 | 1019.2 |
| 20260902011324 | 57 | 310 | 0.0 | 0.0 | 0.00 | 0.03 | 0.00 | 92 | 1019.2 |
| 20260902010626 | 57 | 310 | 0.0 | 0.0 | 0.00 | 0.03 | 0.00 | 92 | 1019.2 |
| 20260902010107 | 57 | 310 | 0.0 | 0.0 | 0.00 | 0.03 | 0.00 | 92 | 1019.0 |
| 20260902005602 | 57 | 310 | 0.0 | 0.0 | 0.00 | 0.03 | 0.00 | 92 | 1019.0 |
| 20260902005056 | 57 | 310 | 0.0 | 0.0 | 0.00 | 0.03 | 0.00 | 92 | 1019.0 |
| 20260902004549 | 57 | 310 | 0.0 | 0.0 | 0.00 | 0.03 | 0.00 | 92 | 1019.0 |
| 20260902004044 | 57 | 310 | 0.0 | 0.0 | 0.00 | 0.03 | 0.00 | 92 | 1019.1 |
| 20260902003836 | 57 | 310 | 0.0 | 0.0 | 0.00 | 0.03 | 0.00 | 92 | 1019.1 |
| 20260902003031 | 57 | 310 | 0.0 | 0.0 | 0.00 | 0.03 | 0.00 | 92 | 1019.2 |
| 20260902002821 | 57 | 310 | 0.0 | 0.0 | 0.00 | 0.03 | 0.00 | 92 | 1019.2 |
| 20260902002314 | 57 | 310 | 0.0 | 0.0 | 0.00 | 0.03 | 0.00 | 92 | 1019.1 |
| 20260902001609 | 57 | 310 | 0.0 | 0.0 | 0.00 | 0.03 | 0.00 | 92 | 1019.2 |
| 20260902001105 | 57 | 310 | 0.0 | 0.0 | 0.00 | 0.03 | 0.00 | 92 | 1019.2 |
| 20260902000559 | 57 | 310 | 0.0 | 0.0 | 0.00 | 0.03 | 0.00 | 92 | 1019.2 |
| 20260902000054 | 57 | 310 | 0.0 | 0.0 | 0.00 | 0.03 | 0.00 | 92 | 1019.3 |
| 20260901235548 | 57 | 310 | 0.0 | 0.0 | 0.00 | 0.03 | 0.00 | 92 | 1019.3 |
| 20260901235054 | 57 | 310 | 0.0 | 0.0 | 0.00 | 0.03 | 0.00 | 93 | 1019.4 |
| 20260901234533 | 57 | 310 | 0.0 | 0.0 | 0.00 | 0.03 | 0.00 | 93 | 1019.4 |
| 20260901234025 | 57 | 310 | 0.0 | 0.0 | 0.00 | 0.03 | 0.00 | 93 | 1019.5 |
| 20260901233519 | 56 | 310 | 0.0 | 0.0 | 0.00 | 0.03 | 0.00 | 93 | 1019.6 |
| 20260901233010 | 56 | 310 | 0.0 | 0.0 | 0.00 | 0.03 | 0.00 | 92 | 1019.6 |
| 20260901232505 | 56 | 310 | 0.0 | 0.0 | 0.00 | 0.03 | 0.00 | 92 | 1019.5 |
| 20260901232000 | 56 | 310 | 0.0 | 0.0 | 0.00 | 0.03 | 0.00 | 92 | 1019.5 |
| 20260901231550 | 56 | 310 | 0.0 | 0.0 | 0.00 | 0.03 | 0.00 | 92 | 1019.5 |
| 20260901231045 | 56 | 310 | 0.0 | 0.0 | 0.00 | 0.03 | 0.00 | 92 | 1019.5 |
| 20260901230540 | 56 | 310 | 0.0 | 0.0 | 0.00 | 0.03 | 0.00 | 92 | 1019.6 |
| 20260901230226 | 56 | 310 | 0.0 | 0.0 | 0.00 | 0.03 | 0.00 | 91 | 1019.7 |
| 20260901230028 | 56 | 310 | 0.0 | 0.0 | 0.00 | 0.03 | 0.00 | 91 | 1019.7 |
| 20260901225113 | 56 | 310 | 0.0 | 0.0 | 0.00 | 0.03 | 0.00 | 91 | 1019.6 |
| 20260901224604 | 56 | 310 | 0.0 | 0.0 | 0.00 | 0.03 | 0.00 | 92 | 1019.5 |
| 20260901224058 | 56 | 310 | 0.0 | 0.0 | 0.00 | 0.03 | 0.00 | 91 | 1019.6 |
| 20260901223548 | 56 | 310 | 0.0 | 0.0 | 0.00 | 0.03 | 0.00 | 91 | 1019.5 |
| 20260901223139 | 56 | 310 | 0.0 | 0.0 | 0.00 | 0.03 | 0.00 | 91 | 1019.6 |
| 20260901222635 | 56 | 310 | 0.0 | 0.0 | 0.00 | 0.03 | 0.00 | 91 | 1019.7 |
| 20260901222130 | 57 | 310 | 0.0 | 0.0 | 0.00 | 0.03 | 0.00 | 91 | 1019.6 |
| 20260901221635 | 56 | 310 | 0.0 | 0.0 | 0.00 | 0.03 | 0.00 | 91 | 1019.6 |
| 20260901221123 | 56 | 310 | 0.0 | 0.0 | 0.00 | 0.03 | 0.00 | 91 | 1019.5 |
| 20260901220613 | 56 | 310 | 0.0 | 0.0 | 0.00 | 0.03 | 0.00 | 91 | 1019.5 |
| 20260901220103 | 56 | 310 | 0.0 | 0.0 | 0.00 | 0.03 | 0.03 | 91 | 1019.5 |
| 20260901215556 | 57 | 310 | 0.0 | 0.0 | 0.00 | 0.03 | 0.03 | 91 | 1019.7 |
| 20260901215044 | 56 | 310 | 0.0 | 0.0 | 0.00 | 0.03 | 0.03 | 91 | 1019.9 |
| 20260901214634 | 57 | 310 | 0.0 | 0.0 | 0.00 | 0.03 | 0.03 | 91 | 1019.9 |
| 20260901214125 | 57 | 310 | 0.0 | 0.0 | 0.00 | 0.03 | 0.03 | 91 | 1019.8 |
| 20260901213619 | 57 | 310 | 0.0 | 0.0 | 0.00 | 0.03 | 0.03 | 90 | 1019.9 |
| 20260901213110 | 57 | 310 | 0.0 | 0.0 | 0.00 | 0.03 | 0.03 | 90 | 1020.0 |
| 20260901212600 | 57 | 310 | 0.0 | 0.0 | 0.00 | 0.03 | 0.03 | 90 | 1020.0 |
| 20260901212050 | 57 | 310 | 0.0 | 0.0 | 0.00 | 0.03 | 0.03 | 90 | 1020.0 |
| 20260901211542 | 57 | 310 | 0.0 | 0.0 | 0.00 | 0.03 | 0.03 | 90 | 1020.0 |
| 20260901211130 | 57 | 310 | 0.0 | 0.0 | 0.00 | 0.03 | 0.03 | 89 | 1020.0 |
| 20260901210619 | 58 | 310 | 0.0 | 0.0 | 0.00 | 0.03 | 0.03 | 89 | 1019.9 |
| 20260901210115 | 58 | 310 | 0.0 | 0.0 | 0.00 | 0.03 | 0.03 | 89 | 1019.8 |
| 20260901205914 | 58 | 310 | 0.0 | 0.0 | 0.00 | 0.03 | 0.03 | 89 | 1019.8 |
| 20260901205055 | 58 | 310 | 0.0 | 0.0 | 0.00 | 0.03 | 0.03 | 88 | 1019.7 |
| 20260901204546 | 58 | 310 | 0.0 | 0.0 | 0.00 | 0.03 | 0.03 | 88 | 1019.7 |
| 20260901204132 | 58 | 310 | 0.0 | 0.0 | 0.00 | 0.03 | 0.03 | 88 | 1019.8 |
| 20260901203625 | 58 | 310 | 0.0 | 0.0 | 0.00 | 0.03 | 0.03 | 88 | 1019.8 |
| 20260901203116 | 59 | 310 | 0.0 | 0.0 | 0.00 | 0.03 | 0.03 | 87 | 1019.7 |
| 20260901202605 | 59 | 310 | 0.0 | 0.0 | 0.00 | 0.03 | 0.03 | 87 | 1019.6 |
| 20260901202056 | 59 | 310 | 0.0 | 0.0 | 0.00 | 0.03 | 0.03 | 87 | 1019.5 |
| 20260901201553 | 60 | 310 | 0.0 | 0.0 | 0.00 | 0.03 | 0.03 | 86 | 1019.5 |
| 20260901201043 | 60 | 310 | 0.0 | 0.0 | 0.00 | 0.03 | 0.03 | 86 | 1019.5 |
| 20260901200627 | 60 | 310 | 0.0 | 0.0 | 0.00 | 0.03 | 0.03 | 85 | 1019.4 |
| 20260901200121 | 60 | 310 | 0.0 | 0.0 | 0.00 | 0.03 | 0.03 | 85 | 1019.4 |
| 20260901195611 | 60 | 310 | 0.0 | 0.0 | 0.00 | 0.03 | 0.03 | 85 | 1019.4 |
| 20260901195101 | 60 | 310 | 0.0 | 0.0 | 0.00 | 0.03 | 0.03 | 84 | 1019.3 |
| 20260901194554 | 61 | 310 | 0.0 | 0.0 | 0.00 | 0.03 | 0.03 | 83 | 1019.4 |
| 20260901194549 | 61 | 310 | 0.0 | 0.0 | 0.00 | 0.03 | 0.03 | 84 | 1019.3 |
| 20260901193539 | 61 | 310 | 0.0 | 0.0 | 0.00 | 0.03 | 0.03 | 83 | 1019.5 |
| 20260901193126 | 61 | 310 | 0.0 | 0.0 | 0.00 | 0.03 | 0.03 | 83 | 1019.4 |
| 20260901192620 | 62 | 310 | 0.0 | 0.0 | 0.00 | 0.03 | 0.03 | 82 | 1019.2 |
| 20260901192109 | 62 | 310 | 0.0 | 0.0 | 0.00 | 0.03 | 0.03 | 82 | 1019.3 |
| 20260901191600 | 62 | 310 | 0.0 | 0.0 | 0.00 | 0.03 | 0.03 | 82 | 1019.2 |
| 20260901191049 | 62 | 310 | 0.0 | 0.0 | 0.00 | 0.03 | 0.03 | 81 | 1019.1 |
| 20260901190546 | 63 | 310 | 0.0 | 0.0 | 0.00 | 0.03 | 0.03 | 80 | 1019.1 |
| 20260901190541 | 63 | 310 | 0.0 | 0.0 | 0.00 | 0.03 | 0.03 | 81 | 1019.1 |
| 20260901190028 | 63 | 310 | 0.0 | 0.0 | 0.00 | 0.03 | 0.03 | 80 | 1019.1 |
| 20260901185117 | 64 | 310 | 0.0 | 0.0 | 0.00 | 0.03 | 0.03 | 78 | 1019.2 |
| 20260901185111 | 64 | 310 | 0.0 | 0.0 | 0.00 | 0.03 | 0.03 | 79 | 1019.2 |